Date String (YYYY-MM-DD hh:mm:ss) UTC,Instrument flags,Ambient pressure (hPa),Sample flow (lpm),Bypass flow (lpm),Sample temperature (°C),Ambient temperature (°C),ASC tube jacket temperature (°C),LED temperature (°C),Box temperature (°C),Sample RH (%),Span deviation,Mass concentration (μg/m³),Mass concentration (μg/m³),Mass concentration (μg/m³)
DateTimeUTC,F1_M11,P_M11,Q1_M11,Q2_M11,T1_M11,T2_M11,T3_M11,T4_M11,T5_M11,U1_M11,ZSPAN_M11,X0_M11,X2_M11,X1_M11
2021-12-18 11:00:00,,0829.7,5.00,0.00,22.3,21.7,00.0,31.4,23.8,08.1,0000.0,0008.38,0003.24,0002.50
2021-12-18 11:01:00,,0829.7,5.01,0.00,22.2,21.6,00.0,31.4,23.7,08.1,0000.0,0008.40,0003.23,0002.50
2021-12-18 11:02:00,,0829.7,5.01,0.00,22.2,21.4,00.0,31.3,23.6,08.1,0000.0,0008.07,0003.22,0002.49
2021-12-18 11:03:00,,0829.7,4.99,0.00,22.1,21.5,00.0,31.3,23.6,08.2,0000.0,0007.82,0003.22,0002.49
2021-12-18 11:04:00,,0829.8,5.00,0.00,22.2,22.1,00.0,31.3,23.9,08.1,0000.0,0007.91,0003.19,0002.48
2021-12-18 11:05:00,,0829.8,5.00,0.00,22.3,22.8,00.0,31.4,24.1,08.1,0000.0,0008.45,0003.21,0002.50
2021-12-18 11:06:00,,0829.8,5.01,0.00,22.5,23.3,00.0,31.4,24.4,08.1,0000.0,0008.70,0003.24,0002.50
2021-12-18 11:07:00,,0829.8,4.99,0.00,22.6,23.1,00.0,31.4,24.4,08.1,0000.0,0009.08,0003.25,0002.50
2021-12-18 11:08:00,,0829.8,5.02,0.00,22.5,22.7,00.0,31.4,24.3,08.1,0000.0,0009.11,0003.26,0002.49
2021-12-18 11:09:00,,0829.8,5.01,0.00,22.5,22.4,00.0,31.4,24.1,08.1,0000.0,0009.09,0003.27,0002.49
2021-12-18 11:10:00,,0829.8,4.99,0.00,22.4,22.1,00.0,31.4,24.0,08.1,0000.0,0009.18,0003.28,0002.47
2021-12-18 11:11:00,,0829.8,5.01,0.00,22.3,21.9,00.0,31.4,23.9,08.1,0000.0,0009.11,0003.26,0002.43
2021-12-18 11:12:00,,0829.8,4.99,0.00,22.3,21.7,00.0,31.4,23.8,08.1,0000.0,0009.03,0003.26,0002.42
2021-12-18 11:13:00,,0829.8,5.00,0.00,22.2,21.5,00.0,31.4,23.7,08.1,0000.0,0008.99,0003.25,0002.41
2021-12-18 11:14:00,,0829.8,4.99,0.00,22.1,21.4,00.0,31.3,23.6,08.2,0000.0,0009.41,0003.26,0002.41
2021-12-18 11:15:00,,0829.8,5.01,0.00,22.1,21.3,00.0,31.3,23.5,08.2,0000.0,0009.56,0003.26,0002.41
2021-12-18 11:16:00,,0829.8,4.99,0.00,22.1,21.8,00.0,31.3,23.7,08.2,0000.0,0008.52,0003.23,0002.39
2021-12-18 11:17:00,,0829.7,5.00,0.00,22.3,22.5,00.0,31.3,24.0,08.2,0000.0,0009.38,0003.26,0002.39
2021-12-18 11:18:00,,0829.8,5.01,0.00,22.4,23.1,00.0,31.4,24.3,08.1,0000.0,0010.09,0003.26,0002.39
2021-12-18 11:19:00,,0829.8,4.98,0.00,22.5,23.1,00.0,31.4,24.3,08.1,0000.0,0009.88,0003.26,0002.42
2021-12-18 11:20:00,,0829.8,5.01,0.00,22.5,22.7,00.0,31.4,24.2,08.1,0000.0,0009.74,0003.24,0002.44
2021-12-18 11:21:00,,0829.8,5.00,0.00,22.4,22.4,00.0,31.4,24.1,08.0,0000.0,0009.87,0003.21,0002.48
2021-12-18 11:22:00,,0829.8,4.99,0.00,22.4,22.1,00.0,31.4,24.0,08.1,0000.0,0009.89,0003.22,0002.52
2021-12-18 11:23:00,,0829.8,5.01,0.00,22.3,21.9,00.0,31.4,23.8,08.2,0000.0,0009.90,0003.24,0002.57
2021-12-18 11:24:00,,0829.8,5.01,0.00,22.2,21.7,00.0,31.3,23.7,08.2,0000.0,0009.99,0003.28,0002.63
2021-12-18 11:25:00,,0829.7,4.99,0.00,22.2,21.5,00.0,31.3,23.6,08.3,0000.0,0009.92,0003.32,0002.70
2021-12-18 11:26:00,,0829.7,5.00,0.00,22.1,21.3,00.0,31.3,23.6,08.3,0000.0,0009.57,0003.35,0002.76
2021-12-18 11:27:00,,0829.8,5.00,0.00,22.1,21.4,00.0,31.3,23.6,08.4,0000.0,0009.81,0003.39,0002.82
2021-12-18 11:28:00,,0829.8,5.00,0.00,22.2,22.1,00.0,31.3,23.8,08.4,0000.0,0009.12,0003.41,0002.90
2021-12-18 11:29:00,,0829.8,5.01,0.00,22.3,22.8,00.0,31.3,24.1,08.3,0000.0,0008.40,0003.48,0002.99
2021-12-18 11:30:00,,0829.8,4.99,0.00,22.4,23.3,00.0,31.4,24.3,08.3,0000.0,0008.66,0003.55,0003.09
2021-12-18 11:31:00,,0829.9,5.00,0.00,22.5,23.1,00.0,31.4,24.3,08.3,0000.0,0009.14,0003.62,0003.14
2021-12-18 11:32:00,,0829.9,5.00,0.00,22.5,22.7,00.0,31.4,24.2,08.3,0000.0,0009.07,0003.67,0003.17
2021-12-18 11:33:00,,0829.8,4.99,0.00,22.4,22.4,00.0,31.4,24.1,08.2,0000.0,0008.99,0003.69,0003.19
2021-12-18 11:34:00,,0829.8,5.01,0.00,22.4,22.2,00.0,31.4,24.0,08.2,0000.0,0008.93,0003.71,0003.21
2021-12-18 11:35:00,,0829.8,5.00,0.00,22.3,21.9,00.0,31.4,23.9,08.2,0000.0,0009.09,0003.69,0003.21
2021-12-18 11:36:00,,0829.8,5.01,0.00,22.3,21.7,00.0,31.3,23.8,08.3,0000.0,0009.62,0003.69,0003.22
2021-12-18 11:37:00,,0829.8,4.99,0.00,22.2,21.6,00.0,31.3,23.7,08.3,0000.0,0009.39,0003.71,0003.25
2021-12-18 11:38:00,,0829.8,5.00,0.00,22.2,21.4,00.0,31.3,23.7,08.4,0000.0,0009.27,0003.76,0003.26
2021-12-18 11:39:00,,0829.8,5.01,0.00,22.1,21.4,00.0,31.3,23.6,08.4,0000.0,0009.18,0003.78,0003.28
2021-12-18 11:40:00,,0829.9,4.99,0.00,22.2,21.9,00.0,31.3,23.8,08.5,0000.0,0008.97,0003.76,0003.28
2021-12-18 11:41:00,,0829.9,5.00,0.00,22.3,22.6,00.0,31.3,24.0,08.3,0000.0,0008.59,0003.73,0003.25
2021-12-18 11:42:00,,0829.9,5.00,0.00,22.4,23.3,00.0,31.3,24.3,08.2,0000.0,0008.28,0003.72,0003.24
2021-12-18 11:43:00,,0829.9,4.99,0.00,22.5,23.2,00.0,31.4,24.4,08.2,0000.0,0008.17,0003.71,0003.24
2021-12-18 11:44:00,,0829.9,5.00,0.00,22.5,22.9,00.0,31.4,24.3,08.2,0000.0,0008.23,0003.74,0003.25
2021-12-18 11:45:00,,0829.9,5.01,0.00,22.5,22.6,00.0,31.4,24.1,08.3,0000.0,0008.31,0003.79,0003.29
2021-12-18 11:46:00,,0829.9,5.01,0.00,22.4,22.3,00.0,31.4,24.0,08.3,0000.0,0009.10,0003.87,0003.32
2021-12-18 11:47:00,,0829.8,4.99,0.00,22.3,22.0,00.0,31.4,23.9,08.2,0000.0,0009.54,0003.87,0003.33
2021-12-18 11:48:00,,0829.8,5.01,0.00,22.3,21.8,00.0,31.4,23.8,08.3,0000.0,0009.47,0003.88,0003.34
2021-12-18 11:49:00,,0829.8,4.99,0.00,22.2,21.6,00.0,31.3,23.7,08.4,0000.0,0009.44,0003.89,0003.36
2021-12-18 11:50:00,,0829.8,5.01,0.00,22.2,21.5,00.0,31.3,23.7,08.5,0000.0,0009.53,0003.92,0003.38
2021-12-18 11:51:00,,0829.8,4.99,0.00,22.1,21.3,00.0,31.3,23.6,08.5,0000.0,0009.43,0003.94,0003.40
2021-12-18 11:52:00,,0829.8,5.00,0.00,22.1,21.7,00.0,31.3,23.7,08.5,0000.0,0009.19,0003.96,0003.42
2021-12-18 11:53:00,,0829.8,5.00,0.00,22.3,22.4,00.0,31.3,24.0,08.4,0000.0,0009.49,0004.00,0003.44
2021-12-18 11:54:00,,0829.8,5.01,0.00,22.4,23.1,00.0,31.4,24.3,08.4,0000.0,0009.71,0004.04,0003.46
2021-12-18 11:55:00,,0829.8,5.00,0.00,22.5,23.3,00.0,31.4,24.4,08.4,0000.0,0009.71,0004.05,0003.48
2021-12-18 11:56:00,,0829.8,5.01,0.00,22.5,23.0,00.0,31.4,24.3,08.5,0000.0,0009.72,0004.05,0003.49
2021-12-18 11:57:00,,0829.8,4.99,0.00,22.5,22.6,00.0,31.4,24.3,08.5,0000.0,0008.85,0004.04,0003.50
2021-12-18 11:58:00,,0829.8,5.01,0.00,22.5,22.3,00.0,31.4,24.1,08.5,0000.0,0008.13,0004.10,0003.53
2021-12-18 11:59:00,,0829.8,5.00,0.00,22.4,22.1,00.0,31.4,24.0,08.6,0000.0,0008.26,0004.14,0003.54
